Weather Roundup
Issued by NWS Chicago, IL

Home | Current Version | Previous Version | Graphics & Text | Print | Product List | Glossary On
Versions: 1 2 3 4 5 6 7 8 9 10 11 12 13 14 15 16 17 18 19 20 21 22 23 24 25 26 27 28 29 30 31 32 33 34 35 36 37 38 39 40 41 42 43 44 45 46 47 48 49 50
000
NZUS59 KLOT 300610
HRRLOT

CHICAGO AREA WEATHER ROUNDUP
NATIONAL WEATHER SERVICE CHICAGO/ROMEOVILLE IL
100 AM CDT SAT AUG 30 2014

NOTE: "FAIR" INDICATES FEW OR NO CLOUDS BELOW 12,000 FEET WITH NO
SIGNIFICANT WEATHER AND/OR OBSTRUCTIONS TO VISIBILITY.

* THESE STATIONS ARE NOT UNDER NWS QUALITY CONTROL. THEY ALSO MAY NOT
  REPORT WEATHER SUCH AS PRECIPITATION OR FOG.

ILZ005-006-012>014-019>023-300700-
NORTHEAST ILLINOIS

CITY           SKY/WX    TMP DP  RH WIND       PRES   REMARKS
OHARE          CLOUDY    75  67  76 S12       29.86S
6HR MIN TEMP:  74; 6HR MAX TEMP:  82; 6HR PCP:  0.08;

MIDWAY         MOCLDY    78  69  73 S8        29.87F HX  80
6HR MIN TEMP:  77; 6HR MAX TEMP:  83;

AURORA           N/A     73  68  84 S7        29.86F
6HR MIN TEMP:  73; 6HR MAX TEMP:  76; 6HR PCP:  0.01;

LANSING*         N/A    N/A N/A N/A MISG        N/A
JOLIET*        LGT RAIN  73  68  83 S6G16     29.87F
WAUKEGAN         N/A     75  68  78 S12       29.85S
6HR MIN TEMP:  73; 6HR MAX TEMP:  77;

DUPAGE AIRPORT   N/A     74  70  87 S10       29.86F
6HR MIN TEMP:  74; 6HR MAX TEMP:  79; 6HR PCP: TRACE;

WHEELING         N/A     77  69  76 S12       29.88R
6HR MIN TEMP:  77; 6HR MAX TEMP:  82; 6HR PCP: TRACE;

KANKAKEE*      MOCLDY    74  70  86 S9        29.89F
MORRIS*        LGT RAIN  74  70  87 S6        29.86F
LEWIS AIRPORT* LGT RAIN  73  70  91 S12       29.88F
NORTHERLY IS     N/A     75  67  76 S10         N/A
$$

WIZ051-052-058>065-066-070>072-300700-
SOUTHEAST WISCONSIN

CITY           SKY/WX    TMP DP  RH WIND       PRES   REMARKS
MILWAUKEE      CLOUDY    73  69  87 S10       29.84F
6HR MIN TEMP:  73; 6HR MAX TEMP:  77; 6HR PCP:  0.07;

KENOSHA*         N/A     74  70  87 S10       29.85F
RACINE*          N/A     73  69  87 S15       29.86F
BURLINGTON       N/A     71  68  92 S6        29.83F
WAUKESHA         N/A     70  68  94 S8        29.84S
WEST BEND        N/A     70  66  88 S3        29.83S
$$

INZ001>003-010>013-019-020-300700-
NORTHWEST INDIANA

CITY           SKY/WX    TMP DP  RH WIND       PRES   REMARKS
GARY*            N/A     74  69  82 S7        29.89F
6HR MIN TEMP:  73; 6HR MAX TEMP:  78; 6HR PCP:  0.01;

MICHIGAN CITY* NOT AVBL
RENSSELAER*    NOT AVBL
VALPARAISO       N/A     71  69  93 S8        29.92F
$$

LMZ740>746-300700-
SOUTHERN LAKE MICHIGAN

STATION/POSITION TIME  SKY/WX   TEMP WIND        PRES    VSBY
                                AIR  DIR/SP/G
                 (UTC)          (F)  (DEG/KT/KT) (MB)    (MI)
HARRISON CRIB    0600            73  170/ 15/ 17   N/A
BURNHAM HARBOR   0600            75  190/  9/ 14   N/A
CALUMET HARBOR   0600            75  160/  6/  9 1010.7F
BURNS HARBOR     NOT AVBL
MICHIGAN CITY    0600            73  140/ 12/ 16   N/A
$$

ABBREVIATIONS USED IN REMARKS
   TC - TEMPERATURE IN CELSIUS
  WCI - WIND CHILL INDEX
   HX - HEAT INDEX
  VSB - VISIBILITY
$$


USA.gov is the U.S. government's official web portal to all federal, state and local government web resources and services.